STARLINK-6172, 57130

Orbit data source: Space-Track

STARLINK-6172, 57130 is a payload satellite owned by SpaceX/Seattle (US) in LEO that was launched on Fri, 23 Jun 2023 UTC via an FALCON 9 launch vehicle from the Air Force Eastern Test Range (AFETR). Payload-class satellites include a variety of spacecraft equipped with specific instruments for various scientific and technological missions. These include communications satellites like Starlink; space stations such as the ISS; scientific satellites like the Hubble; Earth observation satellites from companies like Planet Labs, Umbra, and HawkEye 360; GPS; miniature CubeSats for education and research; and military/defense satellites.

Loading next visibility...
Identifier
57130, 2023-090AF
Orbit
LEO
Country
Flag of USUS
Related business
Manufacturer
SpaceX/Seattle
Mission
Operational Commercial Communications
Bus & Motor
STARLINK, Unknown motor
Mass
305 kg wet, ~290 kg dry
Launch date (UTC)
2023-06-23 (3 years ago)
Launch vehicle
FALCON 9
Launch site
Air Force Eastern Test Range (AFETR)
Object type
Payload
Rocket body
Debris
Shape & HBR
Box + 1 Pan, 10.1 m
Radar Cross Section
11.087 m², Large (>1 m²)

Expand to show TLE details & history
Last TLE update: 2 days ago

TLE from 2 days ago
0 STARLINK-6172
1 57130U 23090AF  26171.07473391 -.00000246  00000-0  57890-6 0  9999
2 57130  43.0024  63.0968 0000568 259.4597 100.6191 15.27573874165800
Epoch: 2026-06-20T01:47Z
TLE epoch observation values (Epoch: 2026-06-20T01:47:37.009Z)
Latitude
-0.00001°
Longitude
127.89801°
Altitude
482.915 km
Speed
7.626 km/s
True Right ascension
04h 12m 23s
True Declination
0° 00' 00"
Sunlit
Object was in daylight at epoch
Visualization orbit readout
Latitude
Unknown
Longitude
Unknown
Altitude
Unknown
Speed
Unknown
Apparent Right ascension
Unknown
Apparent Declination
Unknown
Sunlit
N/A
Visualization observer readout
Local Sidereal Time
21:43:08
Azimuth
Unknown
Elevation
Unknown
Doppler factor
Unknown
Orbital elements
Apogee altitude
485.402 km
Perigee altitude
484.622 km
Semi-major axis
6,863.149 km
Eccentricity
0.00006
Inclination
43.0024°
RAAN
63.0968°
Arg. of periapsis
259.4597°
True anomaly
100.6255°
Mean anomaly
100.6191°
Eccentric anomaly
100.6223°
Mean motion
3.81732 °/min
Orbital period
94.31 mins
BSTAR
5.789e-7
Loading maneuver chart data...
Computing Atmospheric mass density...
Loading historical data...
Loading historical data...
Loading historical data...
Loading historical data...
Loading historical data...
Loading historical data...
Loading historical data...

Documentation

Showing up to 5 results
|